User: anonymous   Login
Location: Milton Keynes
(52.0316°N, 0.7531°W)
Time: 02:38:09
(UTC+01:00)
Language:

Genesis I - Orbit

View from above orbital plane
View from above orbital plane
View from above satellite
View from above satellite

Ground track
Ground track

The orbit data is extracted from the following two-line orbital elements,

1 29252U 06029A   19286.90306057  .00000569  00000-0  37782-4 0  9994
2 29252  64.5179  31.1176 0036417 217.0305 142.8305 15.17869492730603
Epoch (UTC): 13 October 2019 21:40:24
Eccentricity: 0.0036417
inclination: 64.5179°
perigee height: 487 km
apogee height: 537 km
right ascension of ascending node: 31.1176°
argument of perigee: 217.0305°
revolutions per day: 15.17869492
mean anomaly at epoch: 142.8305°
orbit number at epoch: 73060

The dashed part of the orbit path shows where the satellite is in the earth's shadow,  

DLR